User: anonymous   Login
Location: Donald C. Martin Observatory
(38.3885°N, 82.3916°W)
Time: 06:19:48
(UTC-05:00)
Language:

Cosmos 1484 Rocket - Orbit

View from above orbital plane
View from above orbital plane
View from above satellite
View from above satellite

Ground track
Ground track

The orbit data is extracted from the following two-line orbital elements,

1 14208U 83075B   14325.79281858  .00004478  00000-0  29137-3 0  1788
2 14208 097.4069 356.9958 0043267 121.7957 238.7497 15.07678962705947
Epoch (UTC): 21 November 2014 19:01:39
Eccentricity: 0.0043267
inclination: 97.4069°
perigee height: 513 km
apogee height: 573 km
right ascension of ascending node: 356.9958°
argument of perigee: 121.7957°
revolutions per day: 15.07678962
mean anomaly at epoch: 238.7497°
orbit number at epoch: 70594

The dashed part of the orbit path shows where the satellite is in the earth's shadow,  

DLR